TimeEDT,TemperatureF,Dew PointF,Humidity,Sea Level PressureIn,VisibilityMPH,Wind Direction,Wind SpeedMPH,Gust SpeedMPH,PrecipitationIn,Events,Conditions,WindDirDegrees,DateUTC
12:53 AM,50.0,39.0,66,29.86,10.0,SW,11.5,-,N/A,,Scattered Clouds,220,2012-10-10 04:53:00
1:53 AM,50.0,39.0,66,29.84,10.0,SW,11.5,-,N/A,,Overcast,220,2012-10-10 05:53:00
2:53 AM,51.1,39.9,66,29.84,10.0,WSW,5.8,-,N/A,,Overcast,250,2012-10-10 06:53:00
3:33 AM,48.2,41.0,76,29.85,10.0,NNW,11.5,29.9,N/A,,Overcast,330,2012-10-10 07:33:00
3:53 AM,45.0,41.0,86,29.86,8.0,NNW,10.4,18.4,0.02,Rain,Light Rain,340,2012-10-10 07:53:00
4:07 AM,44.6,42.8,93,29.85,10.0,NNW,8.1,-,0.02,Rain,Light Rain,340,2012-10-10 08:07:00
4:53 AM,44.1,41.0,89,29.87,7.0,NW,4.6,-,0.06,Rain,Light Rain,320,2012-10-10 08:53:00
5:53 AM,43.0,41.0,93,29.88,10.0,WNW,4.6,-,0.02,,Overcast,300,2012-10-10 09:53:00
6:34 AM,42.8,41.0,93,29.88,10.0,WNW,5.8,-,0.00,Rain,Light Rain,300,2012-10-10 10:34:00
6:53 AM,43.0,39.9,89,29.90,10.0,WNW,4.6,-,0.00,,Mostly Cloudy,300,2012-10-10 10:53:00
7:53 AM,43.0,39.9,89,29.92,10.0,West,5.8,-,N/A,,Overcast,270,2012-10-10 11:53:00
8:53 AM,43.0,39.9,89,29.94,10.0,West,9.2,-,N/A,,Mostly Cloudy,270,2012-10-10 12:53:00
9:53 AM,45.0,39.9,82,29.96,10.0,West,11.5,-,N/A,,Mostly Cloudy,270,2012-10-10 13:53:00
10:27 AM,46.4,39.2,76,29.96,10.0,WNW,10.4,-,N/A,,Overcast,290,2012-10-10 14:27:00
10:53 AM,48.0,39.9,74,29.98,10.0,West,10.4,-,N/A,,Overcast,280,2012-10-10 14:53:00
11:31 AM,48.2,37.4,66,29.97,10.0,WNW,16.1,26.5,N/A,,Scattered Clouds,290,2012-10-10 15:31:00
11:53 AM,48.9,36.0,61,29.99,10.0,WNW,15.0,23.0,N/A,,Mostly Cloudy,300,2012-10-10 15:53:00
12:53 PM,50.0,35.1,57,30.00,10.0,West,11.5,25.3,N/A,,Overcast,280,2012-10-10 16:53:00
1:53 PM,48.9,34.0,56,30.00,10.0,WNW,13.8,24.2,N/A,,Overcast,290,2012-10-10 17:53:00
2:53 PM,48.9,33.1,54,30.01,10.0,NW,15.0,25.3,N/A,,Overcast,310,2012-10-10 18:53:00
3:53 PM,46.0,30.9,56,30.05,10.0,WNW,11.5,26.5,N/A,,Overcast,300,2012-10-10 19:53:00
4:53 PM,46.0,28.0,50,30.08,10.0,WNW,18.4,28.8,N/A,,Overcast,300,2012-10-10 20:53:00
5:53 PM,46.0,27.0,47,30.09,10.0,NW,13.8,26.5,N/A,,Overcast,320,2012-10-10 21:53:00
6:53 PM,44.1,28.0,53,30.12,10.0,NW,13.8,20.7,N/A,,Overcast,310,2012-10-10 22:53:00
7:53 PM,43.0,28.0,56,30.15,10.0,WNW,10.4,-,N/A,,Scattered Clouds,290,2012-10-10 23:53:00
8:53 PM,41.0,26.1,55,30.17,10.0,WNW,4.6,-,N/A,,Scattered Clouds,290,2012-10-11 00:53:00
9:53 PM,41.0,28.0,60,30.19,10.0,West,3.5,-,N/A,,Mostly Cloudy,270,2012-10-11 01:53:00
10:53 PM,39.0,28.0,65,30.20,10.0,WSW,3.5,-,N/A,,Clear,250,2012-10-11 02:53:00
11:53 PM,37.0,28.0,70,30.21,10.0,WSW,4.6,-,N/A,,Partly Cloudy,240,2012-10-11 03:53:00